PBO Station Position Time Series. Reference Frame : NAM14
Format Version,1.1.1
4-character ID,LFLO
Station name,FLORENCE_COOP
Begin Date, 2006-08-03
End Date, 2023-05-11
Release Date, 2023-06-22
Reference position, 43.9836058153 North Latitude, -124.1077085682 East Longitude, -6.39933 meters elevation,
Date, North (mm), East (mm), Vertical (mm), North Std. Deviation (mm), East Std. Deviation (mm),              Vertical Std. Deviation (mm), Quality,
2006-08-03,0.00, 0.00, 0.00, 2.17, 1.62, 7.41, repro,
2006-08-04,2.57, 0.47, 1.70, 2.24, 1.66, 7.56, repro,
2006-08-05,1.06, -0.04, 5.29, 2.22, 1.67, 7.55, repro,
2006-08-06,1.51, 0.67, 4.50, 2.17, 1.62, 7.38, repro,
2006-08-07,0.99, 0.90, 5.25, 2.20, 1.65, 7.57, repro,
2006-08-08,0.86, -0.40, 1.91, 2.20, 1.64, 7.43, repro,
2006-08-09,0.31, 1.38, 3.37, 2.14, 1.58, 7.18, repro,
2006-08-10,1.00, 1.63, -3.53, 2.13, 1.58, 7.17, repro,
2006-08-11,0.72, 1.53, 3.14, 2.13, 1.57, 7.13, repro,
2006-08-12,1.48, 0.77, 1.86, 2.15, 1.57, 7.19, repro,
2006-08-13,0.64, 0.09, 3.66, 2.14, 1.58, 7.23, repro,
2006-08-14,-1.35, 0.73, 5.80, 2.14, 1.57, 7.14, repro,
2006-08-15,0.85, -0.01, 10.11, 2.22, 1.60, 7.27, repro,
2006-08-16,2.39, 1.14, -3.73, 2.13, 1.56, 7.11, repro,
2006-08-17,1.11, 0.91, 0.05, 2.18, 1.62, 7.31, repro,
2006-08-18,-0.69, 1.57, 0.28, 2.23, 1.67, 7.49, repro,
2006-08-19,0.09, -0.58, 0.85, 2.17, 1.62, 7.32, repro,
2006-08-20,0.72, 0.11, 12.07, 2.12, 1.58, 7.10, repro,
2006-08-21,1.14, 1.35, 1.05, 2.13, 1.58, 7.13, repro,
2006-08-22,0.70, 1.51, 0.16, 2.14, 1.60, 7.23, repro,
2006-08-23,-0.07, 1.53, 1.40, 2.18, 1.61, 7.38, repro,
2006-08-24,1.08, -0.22, 9.25, 2.16, 1.62, 7.42, repro,
2006-08-25,0.72, 0.83, 12.46, 2.18, 1.64, 7.45, repro,
2006-08-26,-0.40, 0.62, 7.93, 2.22, 1.67, 7.60, repro,
2006-08-27,1.28, 0.23, -5.16, 2.22, 1.67, 7.62, repro,
2006-08-28,0.61, 0.27, 0.68, 2.22, 1.69, 7.66, repro,
2006-08-29,-0.72, 0.08, -4.79, 2.28, 1.74, 7.83, repro,
2006-08-30,0.26, 0.14, 4.02, 2.22, 1.69, 7.61, repro,
2006-08-31,1.41, 0.34, 0.74, 2.21, 1.68, 7.56, repro,
2006-09-01,-0.71, 0.75, -2.61, 2.22, 1.69, 7.64, repro,
2006-09-02,0.92, 0.35, -5.51, 2.23, 1.68, 7.66, repro,
2006-09-03,1.02, 0.74, 1.17, 2.29, 1.75, 7.88, repro,
2006-09-04,0.66, 0.80, 1.61, 2.30, 1.71, 7.78, repro,
2006-09-05,2.15, 0.03, -0.75, 2.28, 1.71, 7.77, repro,
2006-09-06,2.16, -0.32, -0.17, 2.22, 1.69, 7.65, repro,
2006-09-07,1.94, 1.02, 1.07, 2.28, 1.73, 7.92, repro,
2006-09-08,1.23, 0.15, 1.94, 2.26, 1.73, 7.92, repro,
2006-09-09,-1.20, -0.67, 5.49, 2.19, 1.65, 7.49, repro,
2006-09-10,-0.18, 0.13, 5.60, 2.19, 1.65, 7.42, repro,
2006-09-11,1.82, -0.69, 5.79, 2.19, 1.64, 7.35, repro,
2006-09-12,0.83, -0.18, 0.08, 2.18, 1.64, 7.34, repro,
2006-09-13,1.01, 0.20, 3.91, 2.20, 1.65, 7.45, repro,
2006-09-14,0.41, -0.93, 7.10, 2.26, 1.68, 7.58, repro,
2006-09-15,-0.32, -0.36, 5.93, 2.22, 1.64, 7.38, repro,
2006-09-16,0.73, -0.83, 7.93, 2.14, 1.60, 7.24, repro,
2006-09-17,2.30, 0.20, 5.10, 2.15, 1.59, 7.20, repro,
2006-09-21,0.30, 0.61, 9.24, 2.18, 1.64, 7.41, repro,
2006-09-22,0.72, -0.57, 3.55, 2.27, 1.69, 7.66, repro,
2006-09-23,-0.50, -0.47, 1.10, 2.19, 1.64, 7.36, repro,
2006-09-24,0.70, -0.40, 6.77, 2.27, 1.70, 7.62, repro,
2006-09-25,-0.18, 0.33, 3.01, 2.20, 1.63, 7.46, repro,
2006-09-26,-0.31, -0.62, 3.58, 2.21, 1.63, 7.35, repro,
2006-09-27,0.87, -0.54, 3.70, 2.21, 1.62, 7.31, repro,
2006-09-28,0.37, -0.80, 8.20, 2.18, 1.62, 7.34, repro,
2006-09-29,0.84, -0.34, 10.20, 2.16, 1.63, 7.31, repro,
2006-09-30,1.07, -1.68, 11.76, 2.75, 2.17, 9.77, repro,
2006-10-01,0.15, 0.29, 8.86, 2.19, 1.63, 7.37, repro,
2006-10-02,1.23, -1.44, 11.08, 2.23, 1.68, 7.45, repro,
2006-10-03,-0.55, 0.43, 0.51, 2.27, 1.71, 7.69, repro,
2006-10-04,1.33, -0.22, 9.18, 2.19, 1.64, 7.32, repro,
2006-10-05,0.34, -0.71, 11.54, 2.17, 1.63, 7.32, repro,
2006-10-06,1.39, -0.14, 1.20, 2.26, 1.69, 7.56, repro,
2006-10-07,3.57, -0.56, -1.50, 2.24, 1.68, 7.60, repro,
2006-10-08,1.54, -0.66, -6.03, 2.22, 1.66, 7.48, repro,
2006-10-09,-0.19, -0.11, -3.66, 2.20, 1.65, 7.43, repro,
2006-10-10,1.44, -0.37, 8.93, 2.26, 1.71, 7.70, repro,
2006-10-11,-0.83, 1.16, -0.21, 2.24, 1.68, 7.64, repro,
2006-10-12,1.12, 0.23, 7.39, 2.21, 1.64, 7.40, repro,
2006-10-13,0.53, -0.66, 11.52, 2.14, 1.59, 7.18, repro,
2006-10-14,0.08, -1.15, 8.18, 2.17, 1.64, 7.34, repro,
2006-10-15,-0.43, -0.28, 20.07, 2.23, 1.71, 7.68, repro,
2006-10-16,-1.36, 2.26, 16.13, 2.18, 1.64, 7.52, repro,
2006-10-17,0.45, 1.32, 10.55, 2.21, 1.67, 7.68, repro,
2006-10-18,1.48, 0.28, 8.15, 2.15, 1.62, 7.36, repro,
2006-10-19,0.11, 0.57, 2.41, 2.37, 1.71, 7.97, repro,
2006-10-20,0.59, 0.10, 8.66, 2.56, 1.94, 9.00, repro,
2006-10-21,-0.48, 1.51, -3.38, 2.33, 1.72, 7.94, repro,
2006-10-22,-1.34, 1.14, 1.17, 2.20, 1.66, 7.59, repro,
2006-10-23,-0.15, 1.31, 7.44, 2.18, 1.65, 7.49, repro,
2006-10-24,0.45, 0.79, -0.11, 2.32, 1.76, 7.88, repro,
2006-10-25,-0.94, 0.07, 4.60, 2.29, 1.78, 7.82, repro,
2006-10-26,-1.49, 0.52, 0.52, 2.28, 1.77, 8.17, repro,
2006-10-27,-0.45, 0.85, -3.53, 2.14, 1.62, 7.29, repro,
2006-10-28,-0.30, 1.27, 1.76, 2.31, 1.68, 7.74, repro,
2006-10-29,2.12, -0.93, 6.74, 2.20, 1.68, 7.55, repro,
2006-10-30,-0.71, -0.12, 6.31, 2.10, 1.59, 7.20, repro,
2006-10-31,-0.70, -0.51, 4.32, 2.12, 1.61, 7.29, repro,
2006-11-01,-1.14, 0.42, 4.51, 2.18, 1.66, 7.57, repro,
2006-11-02,-0.47, -0.26, 3.73, 2.15, 1.61, 7.41, repro,
2006-11-03,-0.15, 1.73, 14.54, 2.19, 1.65, 7.52, repro,
2006-11-04,-2.49, 2.19, 7.67, 2.23, 1.68, 7.61, repro,
2006-11-05,0.54, 3.23, 2.50, 3.07, 2.38, 10.66, repro,
2006-11-08,-2.60, -1.44, 1.55, 4.18, 3.24, 14.90, repro,
2006-11-09,-0.04, 1.68, 10.65, 2.30, 1.72, 7.71, repro,
2006-11-10,-0.84, 1.16, -1.05, 2.24, 1.67, 7.43, repro,
2006-11-11,1.46, 1.16, 7.12, 2.25, 1.68, 7.60, repro,
2006-11-12,-1.06, 1.01, 0.04, 2.26, 1.68, 7.54, repro,
2006-11-13,1.46, -0.04, 1.62, 2.28, 1.67, 7.56, repro,
2006-11-14,-0.16, 1.67, -0.29, 2.13, 1.59, 7.23, repro,
2006-11-15,-0.50, 1.41, -1.01, 2.20, 1.70, 7.57, repro,
2006-11-16,-0.36, -0.03, 7.04, 2.13, 1.64, 7.26, repro,
2006-11-17,-0.00, 0.15, -1.76, 2.10, 1.60, 7.18, repro,
2006-11-18,-0.10, 2.32, -6.47, 2.10, 1.58, 7.16, repro,
2006-11-19,-1.10, 0.34, -0.06, 2.11, 1.59, 7.18, repro,
2006-11-20,0.80, 0.69, -0.94, 2.11, 1.61, 7.26, repro,
2006-11-21,1.08, 0.97, 5.87, 2.10, 1.60, 7.16, repro,
2006-11-22,0.35, 1.81, 3.82, 2.13, 1.62, 7.30, repro,
2006-11-23,-0.55, 1.34, -6.37, 2.14, 1.64, 7.37, repro,
2006-11-24,-0.84, 1.01, 2.94, 2.21, 1.69, 7.67, repro,
2006-11-25,-0.08, 1.56, -3.96, 2.15, 1.62, 7.28, repro,
2006-11-26,0.83, 0.25, -3.70, 2.13, 1.62, 7.22, repro,
2006-11-27,-0.20, 0.85, -7.17, 2.19, 1.68, 7.43, repro,
2006-11-28,-0.15, 1.68, -0.72, 2.12, 1.61, 7.22, repro,
2006-11-29,-1.21, 2.85, -3.51, 2.11, 1.60, 7.22, repro,
2006-11-30,0.16, 2.14, -1.06, 2.11, 1.61, 7.22, repro,
2006-12-01,-0.44, 2.13, -9.25, 2.14, 1.66, 7.34, repro,
2006-12-02,-0.79, 2.18, -14.70, 2.09, 1.61, 7.20, repro,
2006-12-03,0.82, 2.67, -8.73, 2.10, 1.61, 7.19, repro,
2006-12-04,0.23, 2.33, -12.36, 2.14, 1.62, 7.24, repro,
2006-12-05,-0.65, 2.11, -8.58, 2.13, 1.65, 7.32, repro,
2006-12-06,0.38, 1.59, -12.98, 2.15, 1.68, 7.42, repro,
2006-12-07,-0.78, 0.88, -10.02, 2.12, 1.66, 7.35, repro,
2006-12-08,-0.82, 1.17, -6.20, 2.14, 1.66, 7.37, repro,
2006-12-09,-1.00, 0.94, 1.76, 2.16, 1.69, 7.42, repro,
2006-12-10,-1.33, 0.76, -4.98, 2.17, 1.64, 7.37, repro,
2006-12-11,-0.79, 1.24, -1.33, 2.13, 1.64, 7.32, repro,
2006-12-12,0.13, 1.66, -6.10, 2.16, 1.68, 7.39, repro,
2006-12-13,-0.17, -0.20, -3.90, 2.18, 1.70, 7.50, repro,
2006-12-14,0.19, 2.43, -5.59, 2.20, 1.65, 7.36, repro,
2006-12-15,-0.16, 1.79, -7.23, 2.15, 1.69, 7.43, repro,
2006-12-16,0.88, 2.03, -7.97, 2.18, 1.68, 7.41, repro,
2006-12-17,1.00, 2.69, -4.71, 2.19, 1.77, 7.77, repro,
2006-12-18,1.08, 1.68, -8.13, 2.36, 1.84, 8.15, repro,
2006-12-19,0.97, 2.00, -7.43, 2.18, 1.79, 7.77, repro,
2006-12-20,0.69, 1.16, -10.72, 2.26, 1.80, 7.73, repro,
2006-12-21,-0.28, 1.78, -11.73, 2.10, 1.71, 7.46, repro,
2006-12-22,-0.17, 2.63, -6.10, 2.21, 1.83, 7.93, repro,
2006-12-23,1.52, 2.88, -2.87, 2.18, 1.72, 7.58, repro,
2006-12-24,0.95, 2.02, -9.74, 2.09, 1.62, 7.15, repro,
2006-12-25,-0.27, 2.01, -6.48, 2.14, 1.72, 7.52, repro,
2006-12-26,-0.56, 1.92, -7.55, 2.12, 1.67, 7.36, repro,
2006-12-27,1.06, 1.50, -5.33, 2.18, 1.73, 7.59, repro,
2006-12-28,-1.40, 3.73, -8.13, 2.41, 1.97, 8.65, repro,
2007-01-04,3.68, 1.53, -0.18, 3.19, 2.59, 11.55, repro,
2007-01-05,0.45, 0.50, -10.40, 2.08, 1.63, 7.23, repro,
2007-01-06,-1.36, 2.82, -10.82, 2.11, 1.68, 7.34, repro,
2007-01-07,0.57, 2.49, -10.14, 2.13, 1.64, 7.21, repro,
2007-01-08,-0.45, 2.85, -10.38, 2.15, 1.68, 7.38, repro,
2007-01-09,0.34, 2.17, -10.60, 2.13, 1.64, 7.24, repro,
2007-01-10,0.93, 0.73, -6.28, 2.17, 1.64, 7.31, repro,
2007-01-11,-0.13, 1.37, -15.35, 2.21, 1.65, 7.40, repro,
2007-01-12,1.50, 1.94, -13.51, 2.11, 1.60, 7.17, repro,
2007-01-13,2.02, 1.58, -11.47, 2.07, 1.58, 7.00, repro,
2007-01-14,0.61, 1.19, -11.85, 2.07, 1.58, 7.01, repro,
2007-01-15,0.84, 1.28, -16.17, 2.07, 1.59, 7.09, repro,
2007-01-16,0.55, 0.85, -12.47, 2.14, 1.62, 7.17, repro,
2007-01-17,0.26, 1.19, -13.65, 2.10, 1.63, 7.20, repro,
2007-01-18,0.04, 2.01, -15.23, 2.14, 1.65, 7.32, repro,
2007-01-19,0.72, 1.54, -16.82, 2.10, 1.58, 7.17, repro,
2007-01-20,1.05, 2.34, -5.86, 2.12, 1.60, 7.25, repro,
2007-01-21,-1.52, 2.13, -11.81, 2.05, 1.56, 6.94, repro,
2007-01-22,-0.66, 2.90, -9.92, 2.05, 1.58, 6.97, repro,
2007-01-23,1.58, 2.79, -13.07, 2.05, 1.56, 6.93, repro,
2007-01-24,-0.27, 2.14, -13.69, 2.06, 1.57, 6.98, repro,
2007-01-25,-0.19, 1.60, -9.40, 2.10, 1.62, 7.10, repro,
2007-01-26,-0.14, 0.89, -8.81, 2.05, 1.57, 6.94, repro,
2007-01-27,-1.25, 1.13, -10.09, 2.05, 1.57, 6.91, repro,
2007-01-28,-0.28, 2.57, -14.31, 2.05, 1.56, 6.86, repro,
2007-01-29,0.74, 1.70, -10.47, 2.05, 1.56, 6.89, repro,
2007-01-30,1.25, 1.06, -9.42, 2.07, 1.58, 6.99, repro,
2007-01-31,-1.25, 1.33, -2.45, 2.09, 1.61, 7.03, repro,
2007-02-01,-0.22, 1.87, -4.77, 2.10, 1.61, 7.08, repro,
2007-02-02,-0.91, 2.47, -6.53, 2.10, 1.58, 7.03, repro,
2007-02-03,-0.24, 2.51, -11.54, 2.11, 1.59, 7.08, repro,
2007-02-04,-0.15, 1.56, -9.15, 2.07, 1.59, 6.99, repro,
2007-02-05,0.39, 1.72, -15.59, 2.06, 1.57, 6.94, repro,
2007-02-06,-2.53, 0.66, -16.52, 2.09, 1.61, 7.09, repro,
2007-02-07,-0.09, 1.73, -7.62, 2.06, 1.57, 6.89, repro,
2007-02-08,-0.11, 3.27, -10.67, 2.17, 1.69, 7.33, repro,
2007-02-09,1.50, 1.78, -13.09, 2.09, 1.63, 7.16, repro,
2007-02-10,1.75, 1.81, -6.77, 2.07, 1.58, 6.99, repro,
2007-02-11,0.73, 0.97, -5.09, 2.11, 1.62, 7.08, repro,
2007-02-12,-1.17, 2.34, -6.03, 2.05, 1.56, 6.88, repro,
2007-02-13,-0.35, 3.27, -14.22, 2.04, 1.57, 6.88, repro,
2007-02-14,1.13, 4.05, -14.78, 2.06, 1.58, 6.96, repro,
2007-02-15,-0.35, 4.06, -3.36, 2.07, 1.58, 6.98, repro,
2007-02-16,-0.23, 3.77, -5.77, 2.07, 1.59, 7.00, repro,
2007-02-17,-0.79, 2.82, -7.90, 2.10, 1.62, 7.12, repro,
2007-02-18,-1.27, 3.41, -6.76, 2.05, 1.58, 6.99, repro,
2007-02-19,-1.43, 2.57, -1.16, 2.04, 1.57, 6.92, repro,
2007-02-20,-0.79, 3.13, 1.45, 2.07, 1.58, 7.00, repro,
2007-02-21,-0.34, 1.45, 0.44, 2.13, 1.63, 7.29, repro,
2007-02-22,-0.06, 1.31, -1.10, 2.10, 1.63, 7.18, repro,
2007-02-23,0.26, 3.27, -9.83, 2.06, 1.60, 7.06, repro,
2007-02-24,-0.86, 3.63, -8.32, 2.04, 1.58, 6.94, repro,
2007-02-25,-0.13, 2.52, -4.16, 2.06, 1.59, 7.01, repro,
2007-02-26,-2.02, 2.27, 1.36, 2.08, 1.60, 7.02, repro,
2007-02-27,0.49, 1.53, 3.92, 2.08, 1.59, 7.03, repro,
2007-02-28,0.37, 3.11, -5.48, 2.08, 1.59, 7.03, repro,
2007-03-01,-0.24, 3.68, -4.56, 2.12, 1.65, 7.22, repro,
2007-03-02,-1.79, 3.84, -7.33, 2.12, 1.64, 7.16, repro,
2007-03-03,-0.01, 3.39, -13.96, 2.11, 1.62, 7.12, repro,
2007-03-04,0.07, 2.69, -15.16, 2.10, 1.62, 7.12, repro,
2007-03-05,-0.64, 2.06, -8.13, 2.11, 1.62, 7.14, repro,
2007-03-06,-0.81, 1.73, -9.55, 2.10, 1.62, 7.12, repro,
2007-03-07,-1.63, 2.77, 0.35, 2.09, 1.61, 7.07, repro,
2007-03-08,-2.08, 3.82, -9.99, 2.09, 1.61, 7.05, repro,
2007-03-09,-1.10, 2.34, -7.78, 2.10, 1.63, 7.14, repro,
2007-03-10,-0.87, 1.46, -2.52, 2.22, 1.67, 7.50, repro,
2007-03-11,-0.84, 1.30, -7.25, 2.13, 1.64, 7.27, repro,
2007-03-12,-1.68, 2.34, -4.62, 2.10, 1.61, 7.10, repro,
2007-03-13,-0.33, 5.54, -20.14, 5.05, 3.54, 16.43, repro,
2007-03-15,-0.09, 0.55, -6.80, 3.09, 2.57, 10.72, repro,
2007-03-16,-1.02, 1.81, -4.94, 2.12, 1.62, 7.18, repro,
2007-03-17,-0.51, 2.33, -8.90, 2.09, 1.57, 6.99, repro,
2007-03-18,-1.76, 3.01, -6.35, 2.07, 1.57, 6.94, repro,
2007-03-19,-1.37, 3.36, -6.89, 2.07, 1.57, 6.92, repro,
2007-03-20,-0.84, 3.01, 1.87, 2.15, 1.59, 6.99, repro,
2007-03-21,-1.15, 3.42, -5.29, 2.20, 1.64, 7.12, repro,
2007-03-22,-1.62, 2.10, -1.12, 2.10, 1.57, 7.01, repro,
2007-03-23,-1.32, 2.15, -6.57, 2.09, 1.57, 6.99, repro,
2007-03-24,-1.06, 1.74, -3.85, 2.08, 1.57, 6.97, repro,
2007-03-25,-0.68, 2.31, 3.27, 2.09, 1.57, 6.97, repro,
2007-03-26,-2.18, 2.87, -5.13, 2.07, 1.56, 6.91, repro,
2007-03-27,-1.00, 2.74, -2.46, 2.13, 1.59, 7.06, repro,
2007-03-28,-2.33, 3.13, -7.38, 2.14, 1.60, 7.14, repro,
2007-03-29,-1.33, 4.11, -11.13, 2.13, 1.61, 7.16, repro,
2007-03-30,-0.96, 2.40, -12.71, 2.16, 1.63, 7.21, repro,
2007-04-03,-0.68, 2.86, -8.25, 2.10, 1.59, 7.06, repro,
2007-04-04,0.36, 1.29, -13.39, 2.14, 1.62, 7.20, repro,
2007-04-05,-1.37, 1.95, -12.38, 2.14, 1.64, 7.18, repro,
2007-04-06,-1.22, 2.13, -9.07, 2.17, 1.66, 7.21, repro,
2007-04-07,-1.83, 0.73, 0.95, 2.12, 1.60, 7.06, repro,
2007-04-08,0.24, 1.90, -8.45, 2.10, 1.58, 7.03, repro,
2007-04-09,0.63, 0.20, -7.40, 2.11, 1.58, 7.06, repro,
2007-04-10,-0.95, 2.56, -0.38, 2.13, 1.59, 7.07, repro,
2007-04-11,-2.23, 2.83, -2.07, 2.07, 1.56, 6.88, repro,
2007-04-12,-0.55, 2.44, -5.34, 2.08, 1.57, 6.92, repro,
2007-04-13,-0.45, 2.39, -9.23, 2.08, 1.56, 6.91, repro,
2007-04-14,1.82, 4.14, -2.10, 2.19, 1.63, 7.37, repro,
2007-04-15,-0.38, 2.65, -3.04, 2.17, 1.58, 7.13, repro,
2007-04-16,0.27, 3.50, -3.07, 2.09, 1.57, 6.98, repro,
2007-04-17,-1.73, 3.05, -2.02, 2.10, 1.59, 7.05, repro,
2007-04-18,-2.01, 1.31, -7.72, 2.08, 1.57, 6.95, repro,
2007-04-19,-0.04, 1.93, -5.15, 2.14, 1.60, 7.17, repro,
2007-04-20,0.19, 1.65, -10.41, 2.09, 1.56, 6.88, repro,
2007-04-21,-0.78, 1.94, 1.33, 2.10, 1.57, 6.98, repro,
2007-04-22,-0.61, 1.52, -2.74, 2.11, 1.58, 7.04, repro,
2007-04-23,-1.10, 2.06, -11.92, 2.14, 1.59, 7.10, repro,
2007-04-24,-0.89, 3.41, -11.53, 2.13, 1.60, 7.11, repro,
2007-04-25,-0.17, 1.91, -8.20, 2.14, 1.59, 7.13, repro,
2007-04-26,0.61, 2.96, -10.16, 2.10, 1.56, 6.94, repro,
2007-04-27,-0.08, 2.93, -4.39, 2.11, 1.59, 7.10, repro,
2007-04-28,-0.84, 2.07, -5.23, 2.14, 1.62, 7.27, repro,
2007-04-29,-0.09, 2.06, -14.26, 2.09, 1.57, 7.01, repro,
2007-04-30,-0.88, 0.73, -12.32, 2.09, 1.56, 7.00, repro,
2007-05-01,-0.61, 1.95, -6.18, 2.11, 1.57, 7.03, repro,
2007-05-02,-0.75, 4.17, -5.60, 2.21, 1.64, 7.42, repro,
2007-05-03,0.53, 2.04, -5.16, 2.19, 1.59, 7.28, repro,
2007-05-04,-0.96, 2.49, -6.26, 2.10, 1.56, 6.99, repro,
2007-05-05,-1.35, 2.07, -14.86, 2.11, 1.56, 7.02, repro,
2007-05-06,-1.12, 2.73, -10.42, 2.14, 1.57, 7.12, repro,
2007-05-07,0.20, 2.16, -8.06, 2.13, 1.57, 7.05, repro,
2007-05-08,-0.04, 2.88, -8.11, 2.12, 1.56, 7.02, repro,
2007-05-09,0.03, 1.87, -10.59, 2.16, 1.59, 7.09, repro,
2007-05-10,-0.25, 1.84, -10.88, 2.20, 1.63, 7.39, repro,
2007-05-11,0.40, 2.71, -14.57, 2.19, 1.63, 7.43, repro,
2007-05-12,-0.52, 2.21, -4.37, 2.13, 1.58, 7.09, repro,
2007-05-13,0.49, 2.71, -5.15, 2.16, 1.62, 7.20, repro,
2007-05-14,-0.30, 2.96, -10.87, 2.16, 1.57, 7.12, repro,
2007-05-15,-0.63, 2.82, -10.65, 2.13, 1.57, 7.09, repro,
2007-05-16,0.37, 1.43, -11.36, 2.12, 1.57, 7.07, repro,
2007-05-17,-0.66, 1.74, -4.94, 2.17, 1.60, 7.28, repro,
2007-05-18,-0.29, 1.49, -7.58, 2.20, 1.65, 7.36, repro,
2007-05-19,0.25, 3.42, -6.38, 2.19, 1.65, 7.30, repro,
2007-05-20,0.69, 1.78, -3.94, 2.20, 1.62, 7.27, repro,
2007-05-21,0.54, 2.51, -8.04, 2.16, 1.59, 7.17, repro,
2007-05-22,-0.07, 1.67, -9.11, 2.16, 1.61, 7.26, repro,
2007-05-23,0.17, 1.70, -10.11, 2.14, 1.58, 7.11, repro,
2007-05-24,-0.94, 1.44, -7.88, 2.28, 1.76, 7.63, repro,
2007-05-25,0.24, 3.42, -8.04, 2.63, 1.89, 8.28, repro,
2007-05-26,0.86, 2.59, -11.78, 2.30, 1.75, 7.84, repro,
2007-05-27,0.39, 1.82, -6.06, 2.14, 1.57, 7.08, repro,
2007-05-28,0.15, 2.12, -9.01, 2.20, 1.61, 7.19, repro,
2007-05-29,-0.17, 2.02, -11.46, 2.21, 1.63, 7.25, repro,
2007-05-30,-1.19, 2.15, -8.86, 2.17, 1.56, 7.05, repro,
2007-05-31,0.29, 2.45, -15.33, 2.17, 1.59, 7.06, repro,
2007-06-01,-1.78, 1.49, -8.25, 2.13, 1.56, 7.02, repro,
2007-06-02,0.97, 1.23, -6.48, 2.12, 1.56, 7.04, repro,
2007-06-03,-1.20, 0.54, -8.45, 2.14, 1.57, 7.07, repro,
2007-06-04,-1.47, 2.15, -3.19, 2.14, 1.59, 7.18, repro,
2007-06-05,-1.50, 2.97, -4.04, 2.17, 1.56, 7.10, repro,
2007-06-06,-1.57, 1.95, -3.35, 2.12, 1.56, 6.95, repro,
2007-06-07,-0.25, 2.34, -2.39, 2.13, 1.56, 7.02, repro,
2007-06-08,-0.15, 2.24, -10.12, 2.11, 1.56, 6.98, repro,
2007-06-09,-0.47, 2.15, -7.95, 2.13, 1.59, 7.08, repro,
2007-06-10,-0.02, 1.68, -3.59, 2.12, 1.56, 6.97, repro,
2007-06-11,-0.51, 1.87, -12.14, 2.13, 1.59, 7.03, repro,
2007-06-12,-0.90, 2.19, -15.42, 2.14, 1.60, 7.11, repro,
2007-06-13,-1.29, 1.21, -7.77, 2.17, 1.60, 7.16, repro,
2007-06-14,-0.39, 2.35, -13.14, 2.16, 1.60, 7.10, repro,
2007-06-15,0.35, 2.05, -8.82, 2.14, 1.56, 7.06, repro,
2007-06-16,-0.78, 1.75, -7.11, 2.11, 1.54, 6.93, repro,
2007-06-17,0.25, 3.10, -12.55, 2.11, 1.55, 6.95, repro,
2007-06-18,0.12, 3.16, -9.97, 2.11, 1.55, 6.94, repro,
2007-06-19,1.79, 2.57, -2.86, 2.11, 1.56, 7.00, repro,
2007-06-20,1.19, 1.52, -12.32, 2.12, 1.56, 6.97, repro,
2007-06-21,-0.21, 1.84, -7.50, 2.12, 1.55, 6.98, repro,
2007-06-22,0.07, 3.29, -15.89, 2.15, 1.59, 7.07, repro,
2007-06-23,-0.70, 2.16, -14.35, 2.10, 1.55, 6.92, repro,
2007-06-24,-0.47, 2.40, -4.97, 2.15, 1.61, 7.20, repro,
2007-06-25,1.81, 2.69, -10.95, 2.12, 1.55, 6.96, repro,
2007-06-26,0.85, 2.74, -11.74, 2.13, 1.55, 7.02, repro,
2007-06-27,0.63, 3.46, -6.21, 2.14, 1.56, 7.08, repro,
2007-06-28,1.03, 2.40, -8.83, 2.12, 1.57, 7.05, repro,
2007-06-30,0.23, 2.83, -9.80, 2.11, 1.54, 6.93, repro,
2007-07-01,0.48, 1.00, -6.75, 2.12, 1.56, 7.02, repro,
2007-07-02,0.30, 1.80, -7.15, 2.30, 1.70, 7.60, repro,
2007-07-03,-0.66, 1.78, -6.82, 2.31, 1.72, 7.69, repro,
2007-07-04,0.90, 2.67, -10.70, 2.28, 1.71, 7.63, repro,
2007-07-05,0.41, 2.01, -12.68, 2.45, 1.82, 8.07, repro,
2007-07-06,1.45, -0.20, -12.93, 2.60, 1.92, 8.53, repro,
2007-07-07,1.82, 2.11, -11.22, 2.14, 1.56, 7.06, repro,
2007-07-08,0.58, 1.84, -7.37, 2.13, 1.55, 6.96, repro,
2007-07-09,-0.17, 2.82, -9.67, 2.11, 1.56, 6.96, repro,
2007-07-10,-1.45, 1.87, -4.66, 2.12, 1.57, 7.07, repro,
2007-07-11,-0.23, 1.63, -3.09, 2.11, 1.56, 6.97, repro,
2007-07-12,0.92, 2.77, -9.54, 2.19, 1.63, 7.29, repro,
2007-07-13,0.30, 3.02, -12.10, 2.17, 1.62, 7.21, repro,
2007-07-14,1.16, 2.34, -4.01, 2.14, 1.59, 7.11, repro,
2007-07-15,-0.26, 2.91, -4.33, 2.10, 1.56, 6.95, repro,
2007-07-16,-1.53, 1.77, -2.57, 2.10, 1.56, 6.97, repro,
2007-07-17,-0.79, 0.36, 2.76, 2.12, 1.60, 7.13, repro,
2007-07-18,-0.13, 2.73, -1.13, 2.14, 1.57, 7.12, repro,
2007-07-19,0.52, 3.30, -6.49, 2.18, 1.61, 7.13, repro,
2007-07-20,-0.81, 3.47, -1.73, 2.16, 1.61, 7.20, repro,
2007-07-21,-0.35, 2.24, -4.03, 2.12, 1.57, 7.04, repro,
2007-07-22,-0.91, 2.55, 0.79, 2.13, 1.61, 7.14, repro,
2007-07-23,0.61, 1.49, -3.11, 2.13, 1.57, 7.02, repro,
2007-07-24,0.58, 3.31, -2.89, 2.14, 1.56, 7.02, repro,
2007-07-25,0.53, 2.69, -2.12, 2.18, 1.60, 7.10, repro,
2007-07-26,0.44, 2.06, -9.24, 2.22, 1.65, 7.30, repro,
2007-07-27,1.21, 1.75, -4.97, 2.15, 1.63, 7.25, repro,
2007-07-28,0.29, 2.40, -4.65, 2.16, 1.62, 7.29, repro,
2007-07-29,-0.92, 2.01, -0.23, 2.19, 1.60, 7.12, repro,
2007-07-30,0.73, 2.22, -1.18, 2.13, 1.56, 6.98, repro,
2007-07-31,-1.07, 2.61, -0.81, 2.10, 1.56, 6.97, repro,
2007-08-01,-0.00, 2.68, -2.39, 2.10, 1.55, 6.97, repro,
2007-08-02,1.31, 2.27, -8.10, 2.12, 1.56, 7.01, repro,
2007-08-03,0.86, 1.35, -1.30, 2.17, 1.60, 7.09, repro,
2007-08-04,2.61, 2.13, 0.07, 2.13, 1.55, 7.00, repro,
2007-08-05,-0.94, 1.72, 2.40, 2.12, 1.56, 6.97, repro,
2007-08-06,-0.63, 2.48, 5.02, 2.12, 1.59, 7.01, repro,
2007-08-07,-0.17, 2.78, -2.73, 2.13, 1.58, 7.05, repro,
2007-08-08,0.41, 2.31, 3.23, 2.13, 1.56, 7.05, repro,
2007-08-09,-0.57, 1.81, 2.93, 2.19, 1.62, 7.21, repro,
2007-08-10,0.50, 2.15, 2.40, 2.12, 1.55, 7.01, repro,
2007-08-11,-0.91, 2.28, 1.94, 2.10, 1.55, 6.89, repro,
2007-08-12,-0.13, 1.95, -1.26, 2.12, 1.55, 6.99, repro,
2007-08-13,-1.12, 2.20, -0.76, 2.10, 1.55, 6.98, repro,
2007-08-14,0.44, 1.85, -5.26, 2.37, 1.73, 7.73, repro,
2007-08-15,1.32, 2.39, -1.57, 2.29, 1.70, 7.64, repro,
2007-08-16,0.06, 1.20, 2.73, 2.20, 1.62, 7.22, repro,
2007-08-17,-1.51, 0.54, 9.55, 2.21, 1.62, 7.25, repro,
2007-08-18,-1.11, 1.48, -1.65, 2.24, 1.66, 7.42, repro,
2007-08-19,0.22, 1.79, 4.42, 2.26, 1.66, 7.47, repro,
2007-08-20,-1.49, 2.75, -4.05, 2.23, 1.62, 7.33, repro,
2007-08-21,-0.32, 1.93, 2.57, 2.21, 1.61, 7.25, repro,
2007-08-22,-0.96, 1.56, -3.48, 2.21, 1.61, 7.21, repro,
2007-08-23,-0.35, 1.43, 3.96, 2.17, 1.57, 7.06, repro,
2007-08-24,1.10, 1.58, 0.12, 2.27, 1.64, 7.39, repro,
2007-08-25,-0.03, 1.12, -2.85, 2.24, 1.67, 7.51, repro,
2007-08-26,1.03, 0.51, 0.03, 2.34, 1.75, 7.84, repro,
2007-08-27,-0.49, 0.51, 0.81, 2.25, 1.68, 7.46, repro,
2007-08-28,-0.33, 1.48, 1.71, 2.21, 1.63, 7.26, repro,
2007-08-29,0.66, 1.46, -1.78, 2.22, 1.64, 7.36, repro,
2007-08-30,-0.91, 1.24, -1.73, 2.22, 1.64, 7.39, repro,
2007-08-31,-1.77, 1.56, 4.94, 2.22, 1.64, 7.38, repro,
2007-09-01,-0.42, 1.44, 0.98, 2.22, 1.65, 7.44, repro,
2007-09-02,-0.41, 1.81, -0.33, 2.21, 1.64, 7.35, repro,
2007-09-03,-1.03, 0.70, 3.78, 2.25, 1.65, 7.48, repro,
2007-09-04,-0.54, 0.38, 12.30, 2.28, 1.66, 7.50, repro,
2007-09-05,0.12, 1.31, 0.42, 2.28, 1.68, 7.41, repro,
2007-09-06,-0.29, 0.67, 1.06, 2.70, 2.08, 9.06, repro,
2007-09-07,-0.82, 0.80, 2.90, 2.23, 1.68, 7.49, repro,
2007-09-08,-0.98, 0.30, 4.11, 2.25, 1.68, 7.45, repro,
2007-09-09,-0.39, 0.70, -3.05, 2.31, 1.72, 7.74, repro,
2007-09-10,0.21, 1.08, 1.39, 2.23, 1.65, 7.39, repro,
2007-09-11,-1.80, 1.05, 3.58, 2.23, 1.64, 7.39, repro,
2007-09-12,-1.39, 0.23, 3.72, 2.24, 1.67, 7.49, repro,
2007-09-13,-0.15, 0.92, 10.02, 2.27, 1.69, 7.63, repro,
2007-09-14,-0.54, 1.48, -1.67, 2.25, 1.64, 7.38, repro,
2007-09-15,-0.58, 1.99, 1.41, 2.30, 1.66, 7.66, repro,
2007-09-16,-1.27, 0.94, 9.32, 2.24, 1.65, 7.42, repro,
2007-09-17,-0.46, 0.63, 3.71, 2.27, 1.70, 7.60, repro,
2007-09-18,-0.25, 1.22, 0.32, 2.19, 1.68, 7.44, repro,
2007-09-19,0.73, 1.88, -5.13, 2.14, 1.57, 7.12, repro,
2007-09-20,0.76, 0.24, -2.13, 2.18, 1.61, 7.32, repro,
2007-09-21,0.20, 0.97, 0.95, 2.22, 1.61, 7.33, repro,
2007-09-22,-0.62, 1.03, 4.49, 2.20, 1.59, 7.19, repro,
2007-09-23,-0.88, 1.53, 4.87, 2.18, 1.58, 7.15, repro,
2007-09-24,-0.40, 3.26, -2.00, 2.26, 1.59, 7.33, repro,
2007-09-25,0.35, 1.62, -4.03, 2.26, 1.62, 7.47, repro,
2007-09-26,-0.57, 1.07, 3.67, 2.18, 1.58, 7.13, repro,
2007-09-27,-1.64, 1.92, -0.21, 2.20, 1.59, 7.25, repro,
2007-09-28,-0.32, 2.36, 5.09, 2.18, 1.62, 7.32, repro,
2007-09-29,-0.59, 1.85, 3.78, 2.24, 1.65, 7.37, repro,
2007-09-30,-0.55, 1.69, 4.89, 2.16, 1.60, 7.21, repro,
2007-10-01,-1.38, 1.02, 1.76, 2.22, 1.65, 7.39, repro,
2007-10-02,-0.38, 2.74, 3.32, 2.73, 1.93, 8.72, repro,
2007-10-03,0.51, 0.32, 9.22, 2.21, 1.63, 7.40, repro,
2007-10-04,-0.91, 3.10, 0.89, 2.17, 1.60, 7.30, repro,
2007-10-05,-0.19, 1.80, 4.17, 2.34, 1.77, 7.83, repro,
2007-10-06,-2.09, 3.33, 0.25, 2.24, 1.66, 7.46, repro,
2007-10-07,-1.03, 3.71, 2.13, 2.22, 1.61, 7.33, repro,
2007-10-08,-0.28, 2.32, -6.38, 2.52, 1.84, 8.50, repro,
2007-10-09,0.77, 1.68, -2.49, 2.32, 1.77, 7.85, repro,
2007-10-10,-0.50, 2.81, -3.45, 2.39, 1.71, 7.79, repro,
2007-10-11,-1.91, 3.39, 4.00, 2.21, 1.66, 7.33, repro,
2007-10-12,-0.15, 1.85, 3.52, 2.20, 1.65, 7.46, repro,
2007-10-13,-1.01, 1.95, 4.62, 2.16, 1.59, 7.15, repro,
2007-10-14,-0.67, 2.68, 2.87, 2.16, 1.60, 7.20, repro,
2007-10-15,-1.78, 2.49, 3.73, 2.16, 1.60, 7.20, repro,